Theta_e
328 334 333 332 331 329 328 327 327 327 327 329 331 333 336 337 339 341 341 342 342 342 342 342 343 343 343 343 343 342 342 341 342 342 342 342 342 342 340 337 339 334 335
330 332 332 330 328 326 326 325 325 325 326 326 326 328 330 332 335 336 339 340 341 341 342 342 342 343 343 343 342 343 342 343 343 342 341 341 341 341 338 336 338 333 333
328 329 328 327 325 325 323 323 322 322 323 323 324 325 326 327 328 331 334 336 339 340 341 342 341 341 342 342 342 341 342 343 342 341 340 339 339 339 337 335 334 334 332
326 326 326 325 324 323 321 320 320 320 320 320 320 321 322 324 325 326 327 330 334 338 340 340 341 341 340 341 341 341 341 342 340 339 339 339 337 338 336 335 334 333 330
324 323 323 323 322 321 319 318 318 318 318 318 319 320 320 321 322 324 326 327 328 332 337 338 339 339 340 340 340 341 340 341 338 337 337 337 336 336 337 335 333 332 331
321 320 322 322 320 319 318 316 316 316 317 317 317 317 317 317 317 319 323 326 326 327 331 334 336 337 337 338 339 341 341 339 337 336 337 336 336 338 338 336 333 330 331
319 319 321 320 319 318 317 315 315 315 315 315 316 315 316 315 315 315 316 320 323 326 328 329 332 334 336 336 338 339 339 337 336 336 336 336 336 339 339 335 333 330 331
318 318 319 319 320 318 315 313 313 313 313 313 313 314 314 314 313 313 314 316 319 322 325 326 326 330 334 335 335 338 336 333 333 335 336 336 337 339 338 335 332 329 332
318 317 317 317 316 318 315 312 311 311 311 311 311 311 311 310 310 311 311 312 314 317 320 323 324 325 331 334 334 335 333 332 335 335 334 335 336 338 338 335 330 331 333
316 316 315 315 314 314 313 313 310 310 310 310 308 308 307 307 308 308 309 310 313 314 317 320 322 324 326 331 332 333 330 330 335 335 335 334 336 337 337 334 328 332 334
313 313 314 313 313 312 311 308 309 307 306 305 306 305 307 308 308 308 308 309 311 313 314 318 320 322 325 328 329 330 328 336 335 335 334 332 336 337 336 331 329 333 333
313 313 312 313 312 311 308 310 310 308 311 309 308 308 308 307 307 306 307 308 309 311 314 317 319 321 323 327 326 327 333 334 335 335 335 332 335 336 334 329 331 333 333
315 314 312 312 312 311 310 310 311 311 311 310 308 307 307 306 307 307 308 310 311 310 314 316 319 322 323 327 328 329 333 333 336 336 331 330 333 336 330 328 331 332 332
313 313 314 313 311 311 310 310 310 310 310 309 307 306 306 306 307 308 309 310 311 313 315 317 320 321 326 326 326 328 330 330 333 334 329 326 330 329 327 332 331 332 332
313 313 314 314 312 310 309 310 310 310 308 306 305 306 307 307 308 309 309 309 311 313 314 316 319 320 324 324 324 326 328 328 329 330 327 321 326 328 329 328 332 334 332
313 313 314 312 312 309 309 308 309 309 306 305 305 306 307 308 308 308 308 309 311 313 314 316 318 318 322 324 322 325 326 326 328 327 325 323 324 327 329 331 331 333 332
313 312 310 310 309 308 307 307 308 306 304 305 305 306 307 307 307 308 309 309 311 313 315 316 318 321 322 323 321 321 322 323 323 322 322 324 324 322 326 330 330 331 332
312 309 308 306 307 307 306 306 305 305 306 305 306 307 306 306 307 307 308 309 312 313 314 314 317 318 320 321 319 319 319 320 320 320 320 320 321 323 324 327 329 330 330
309 308 307 307 306 306 304 304 304 304 305 307 307 307 306 306 306 306 308 310 313 314 315 314 315 318 318 319 318 320 319 317 317 317 316 317 321 323 324 323 321 324 328
308 307 306 305 304 303 303 303 303 304 306 307 306 307 306 305 306 306 308 309 311 312 313 315 315 319 317 315 309 308 313 313 313 313 312 314 317 320 325 326 326 324 324
306 305 304 303 302 302 302 301 301 303 305 306 307 306 306 306 306 307 308 308 310 310 311 315 315 314 310 309 306 305 304 304 305 309 311 312 311 313 314 317 318 316 318
304 304 303 301 300 300 301 301 303 304 304 305 307 307 306 308 308 308 308 308 308 309 311 314 314 314 311 312 306 306 300 301 301 303 307 307 308 309 308 309 310 313 311
303 302 301 300 299 299 299 301 302 302 303 304 305 306 306 307 307 307 307 307 308 310 311 315 316 315 310 311 311 305 300 296 297 300 301 302 305 305 307 305 305 307 309
302 301 300 299 299 298 299 300 300 301 301 303 304 305 305 306 305 305 307 307 307 309 312 315 317 316 315 309 309 310 310 305 298 295 298 299 301 301 302 302 304 306 307
300 300 299 298 298 298 299 300 301 300 302 303 303 302 304 305 305 305 306 305 306 309 310 315 315 315 316 312 310 306 305 304 304 301 294 296 298 299 300 300 302 303 306
299 299 298 297 297 298 299 300 300 299 300 301 302 302 303 304 304 306 306 306 307 306 306 311 315 312 312 312 311 310 306 304 302 302 297 296 295 296 298 300 300 301 303
Wind_Speed
8 12 12 10 9 8 7 7 7 7 7 8 9 9 9 10 10 11 8 7 6 5 6 8 7 7 8 10 9 11 10 9 8 8 12 13 15 17 16 14 11 13 15
12 11 10 10 9 8 7 7 7 6 7 7 7 9 9 10 10 11 10 11 7 6 6 7 9 9 9 9 8 9 12 9 7 8 9 12 16 18 16 12 9 13 14
12 10 10 9 8 7 7 7 6 6 6 6 7 7 8 9 10 11 12 12 10 9 8 8 8 8 9 9 9 10 10 9 8 9 13 10 12 16 16 14 14 14 13
11 9 8 8 8 7 6 6 6 6 6 6 6 6 7 7 8 9 11 11 12 11 9 8 7 7 7 9 12 12 11 10 10 12 11 11 11 16 16 15 14 13 13
10 9 8 8 7 7 6 6 6 6 6 6 7 7 8 8 8 9 9 10 11 12 10 10 9 7 7 7 10 11 13 11 11 13 11 11 11 15 17 14 14 14 12
10 8 9 8 8 7 6 6 6 6 6 7 7 8 8 8 8 8 9 10 11 11 11 10 10 9 6 6 9 12 13 13 14 14 11 11 10 16 17 16 14 13 11
11 8 8 8 7 6 6 6 5 5 6 6 7 8 9 9 9 9 10 10 10 12 10 11 10 10 8 6 5 10 12 12 15 13 13 12 12 16 15 15 15 13 13
11 9 7 7 6 6 5 5 5 4 5 5 6 8 9 9 10 10 10 10 11 11 12 12 12 11 11 9 7 7 11 13 14 13 13 11 11 16 17 17 14 14 13
8 7 6 6 6 4 4 4 4 4 4 5 6 8 8 9 9 10 9 10 11 11 12 12 12 13 15 12 9 7 9 13 14 10 12 10 13 18 18 17 15 14 13
8 7 7 6 5 5 5 3 4 4 5 5 6 7 8 8 8 8 9 8 11 11 12 13 13 13 15 15 12 8 9 12 15 12 10 8 16 18 18 18 16 15 12
6 7 6 6 6 5 5 4 4 4 3 2 3 4 7 6 8 8 7 11 12 11 11 12 13 14 15 14 12 9 8 10 13 9 8 11 15 18 19 20 18 15 14
12 10 8 8 7 6 4 4 3 1 2 3 4 6 5 7 7 8 8 9 11 11 12 11 12 13 12 9 7 7 7 12 10 10 8 12 15 16 18 17 17 17 16
11 9 9 8 7 6 5 3 2 2 2 3 5 5 6 6 6 6 5 5 6 6 5 6 7 7 9 7 6 6 8 9 7 6 7 10 12 13 16 14 14 15 14
11 10 9 8 6 6 3 4 3 2 2 3 4 6 5 5 6 6 5 6 5 4 6 6 4 6 9 8 7 8 7 4 4 5 8 19 22 24 22 19 14 12 18
10 9 8 7 6 5 5 3 2 1 2 4 4 5 5 5 6 6 6 6 6 5 5 5 5 5 8 5 5 9 6 7 7 5 7 19 22 23 21 20 18 19 19
9 7 6 6 5 6 5 4 1 1 3 3 4 5 6 5 5 7 7 6 5 5 5 6 4 6 6 4 4 6 6 5 7 8 8 12 21 18 21 19 18 19 18
8 7 6 7 7 6 5 3 1 2 3 3 4 5 6 6 6 7 6 6 5 6 7 6 7 5 5 4 4 4 5 7 7 9 9 7 8 9 8 13 15 18 19
9 8 7 6 7 6 5 3 1 1 2 3 3 4 5 6 6 6 6 5 6 6 6 6 6 6 5 5 4 3 4 6 8 11 8 5 4 5 3 8 10 15 18
9 10 9 8 8 6 5 3 1 2 2 2 2 3 5 5 6 7 7 6 9 7 7 6 6 7 5 4 5 6 6 6 8 8 9 7 5 2 3 9 8 11 15
11 10 10 7 7 6 4 2 1 1 1 2 3 4 5 5 6 6 6 7 7 7 7 6 6 5 4 7 7 9 7 6 6 8 8 6 6 8 8 10 10 11 9
11 11 10 9 7 4 3 2 2 1 1 0 2 4 6 5 6 6 6 7 7 7 7 9 6 3 5 9 6 9 9 11 11 6 7 8 9 9 9 9 6 7 7
12 10 9 8 7 3 2 1 1 1 1 1 1 2 3 5 6 7 7 7 7 7 7 7 4 4 3 2 3 3 3 5 10 8 7 8 10 7 10 10 10 11 7
11 10 9 8 7 5 4 3 2 2 2 3 2 1 4 6 6 8 8 7 8 6 6 7 5 6 4 3 7 4 3 4 4 6 10 8 7 8 9 9 10 8 10
9 8 8 7 6 5 5 3 3 2 3 2 1 1 3 5 6 6 7 7 6 6 6 6 1 3 9 7 5 1 4 9 6 3 5 6 9 9 9 6 6 10 8
9 9 8 7 6 5 5 4 4 4 2 2 1 2 2 4 5 5 6 7 7 5 7 7 1 3 6 8 5 5 7 8 3 5 5 4 6 8 6 6 7 6 7
8 8 8 8 6 5 5 5 4 4 3 1 2 3 3 2 3 4 6 5 7 6 6 6 2 5 5 5 7 10 11 7 8 7 6 5 6 5 6 7 6 5 4
Wind_Direction
162 147 148 142 129 116 102 84 66 55 43 29 19 12 7 11 6 16 15 358 335 302 284 273 259 227 208 201 196 188 185 179 179 175 174 164 151 137 131 133 141 120 115
144 149 144 136 126 118 107 94 82 67 50 39 30 16 8 3 358 349 -0 8 352 341 303 293 271 249 217 205 211 198 184 177 181 161 168 159 149 139 143 149 127 122 122
144 142 146 132 124 116 103 91 81 70 59 46 35 30 20 10 357 351 345 341 342 352 332 318 299 283 247 226 212 197 190 179 166 145 155 156 154 148 151 146 131 133 128
144 143 141 133 128 118 106 94 83 70 60 52 44 34 29 18 7 358 345 336 329 328 344 337 328 321 270 227 207 207 201 183 167 159 172 165 163 156 156 150 145 135 133
149 140 130 140 133 126 117 100 82 70 53 41 35 32 23 19 9 357 348 342 334 316 317 330 342 347 341 265 224 205 196 181 171 181 187 175 162 166 165 160 150 142 153
144 147 140 152 146 137 118 97 83 70 60 45 35 25 21 14 7 357 350 344 335 324 305 303 328 339 338 316 232 204 197 193 176 203 196 178 188 172 174 165 142 142 139
156 154 156 158 150 140 125 104 89 77 61 50 33 17 10 8 360 354 345 336 331 323 313 303 299 320 316 316 298 230 204 187 200 199 202 191 200 175 176 149 151 153 148
160 159 156 151 151 145 134 115 96 73 56 43 28 13 5 360 353 347 342 334 324 317 312 308 301 287 312 299 285 276 207 188 207 203 201 198 174 182 167 157 160 159 154
157 164 161 165 158 143 127 120 93 73 54 39 22 8 358 350 346 343 339 328 320 312 306 300 299 293 295 293 285 259 209 191 205 205 203 202 155 184 171 159 164 161 159
164 175 174 172 182 179 169 135 101 82 54 37 20 3 347 323 340 337 320 330 319 313 304 296 290 290 281 287 289 261 211 190 211 204 202 204 164 189 172 158 163 165 160
190 193 184 188 189 191 179 140 132 93 60 353 342 1 311 323 320 315 326 314 312 309 300 289 285 286 286 283 273 256 213 210 207 203 201 154 184 185 173 160 163 170 159
199 198 198 195 198 189 186 170 165 171 308 321 326 331 322 315 318 309 296 306 305 308 299 285 285 282 270 254 236 221 225 207 205 201 198 162 177 184 170 158 168 173 158
205 202 199 200 197 198 183 176 195 225 284 313 329 335 321 318 318 317 313 315 317 305 299 294 290 281 242 237 255 235 229 209 200 197 172 157 156 162 144 167 181 177 162
201 203 197 202 196 195 187 201 212 246 305 321 340 332 322 317 316 314 309 312 303 301 297 287 291 277 261 234 236 224 209 180 187 176 147 130 133 143 161 171 181 177 165
208 203 199 192 197 182 199 204 219 281 319 338 319 321 319 315 314 313 312 309 306 302 284 287 290 286 265 252 240 220 187 171 169 144 141 139 143 155 167 167 180 178 164
208 200 187 181 178 175 187 198 187 341 347 327 321 326 314 311 310 308 306 303 297 300 292 289 288 280 256 222 230 202 164 163 149 136 145 147 151 173 176 185 184 172 160
196 171 167 155 154 161 163 154 86 26 329 329 331 316 310 303 304 307 307 307 306 306 287 280 280 253 246 190 135 133 123 130 126 130 135 150 160 151 187 175 166 170 171
170 165 148 145 146 148 144 121 81 15 336 337 330 315 323 318 314 311 315 312 314 297 294 275 275 261 226 185 140 123 115 112 118 122 120 107 102 152 202 219 169 175 173
158 151 148 151 150 140 122 115 113 19 351 3 331 350 356 348 343 324 322 320 323 306 295 284 279 262 205 175 187 124 107 102 98 95 90 76 130 104 170 95 81 184 168
147 149 149 147 139 130 126 143 129 121 94 24 7 1 346 350 330 309 309 324 321 319 311 286 277 248 176 93 74 65 71 73 101 101 100 87 76 83 107 96 88 72 111
140 147 151 146 145 160 161 182 142 137 62 58 2 3 359 344 322 312 324 322 324 316 308 292 290 149 87 102 88 83 64 52 50 53 92 89 75 73 78 84 85 75 61
148 149 150 143 146 156 150 131 156 71 177 279 340 359 355 335 347 332 329 324 320 314 312 300 293 138 92 142 102 134 101 52 42 26 67 79 79 88 74 67 71 77 68
152 156 152 146 153 156 155 145 137 188 212 188 59 21 357 344 350 351 332 324 325 321 313 315 287 160 140 96 71 70 119 95 98 15 41 47 77 77 83 70 65 62 62
154 148 144 150 163 165 151 169 195 182 180 103 221 313 326 337 351 343 334 328 320 322 324 319 303 171 158 135 108 41 186 131 112 112 44 45 51 61 54 56 63 62 62
154 153 152 156 174 167 143 171 197 176 165 153 245 314 326 10 345 338 327 342 326 344 328 329 288 153 160 155 125 137 88 80 90 118 89 72 63 50 54 56 56 60 54
154 159 159 170 179 166 163 177 207 185 154 194 355 332 346 358 316 334 342 338 345 340 337 318 246 140 136 130 137 147 143 146 137 138 117 89 88 36 37 41 41 50 42